Location: Unspecified
(0.0000°N, 0.0000°E)
Time: 18:49:13
(UTC+00:00)

Courier 1B - Pass Details

Date: 25 November 2019
Orbit: 963 x 1209 km, 28.3° (Epoch: 06 December)

Event Time Altitude Azimuth Distance (km) Brightness Sun altitude
Rises 19:57:00 0° 213° (SSW) 3,974 11.5 -30.1°
Reaches altitude 10° 20:01:14 10° 191° (S) 3,061 10.5 -31.1°
Maximum altitude 20:05:23 15° 157° (SSE) 2,715 9.8 -32.1°
Enters shadow 20:06:27 15° 148° (SSE) 2,748 9.7 -32.3°
